Regional Weather Roundup
Issued by NWS

Home | Current Version | Previous Version | Graphics & Text | Print | Product List | Glossary On
Versions: 1 2 3 4 5 6 7 8 9 10 11 12 13 14 15 16 17 18 19 20 21 22 23 24 25 26 27 28 29 30 31 32 33 34 35 36 37 38 39 40 41 42 43 44 45 46 47 48 49 50
000
ASUS43 KIND 230209
RWRIN

WEATHER ROUNDUP FOR INDIANA
NATIONAL WEATHER SERVICE INDIANAPOLIS IN
900 PM EST WED FEB 22 2017

NOTE: "FAIR" INDICATES FEW OR NO CLOUDS BELOW 12,000 FEET WITH NO
SIGNIFICANT WEATHER AND/OR OBSTRUCTIONS TO VISIBILITY.

* - STATION DOES NOT REPORT WEATHER SUCH AS PRECIPITATION OR FOG.

+ - STATION NOT QUALITY CONTROLLED BY THE NATIONAL WEATHER SERVICE.
    USE DATA WITH CAUTION...ESPECIALLY DEWPOINT AND RELATIVE
    HUMIDITY OBSERVATIONS.

INZ001>003-010>013-019-020-230300-
NORTHWEST INDIANA

CITY           SKY/WX    TMP DP  RH WIND       PRES   REMARKS
GARY /AIRPORT/ CLEAR     63  54  72 S7        29.64S
KNOX *+        CLEAR     55  36  47 S10       29.68S
LA PORTE +     CLEAR     57  53  85 S9        29.67F
MICHIGAN CITY+ CLEAR     59  54  82 S13G18    29.65F
MONTICELLO +   CLEAR     59  54  83 S6        29.69S
RENSSELAER +   PTCLDY    57  54  88 S8        29.68F
VALPARAISO     CLEAR     58  54  86 S12G20    29.66F

$$

LMZ046-743>745-230300-
SOUTHERN LAKE MICHIGAN

STATION/POSITION TIME  TEMP    WIND        PRES    WAVE
                       AIR SEA DIR/SP/G            HT
                 (UTC) (F)     (DEG/KT/KT) (MB)    (FT)
BURNS HARBOR     0140   60     180/ 15/ 20 1004.1F
MICHIGAN CITY    0140   60     150/ 14/ 17   N/A

$$

INZ004-005-014>016-021>024-230300-
NORTH CENTRAL INDIANA

CITY           SKY/WX    TMP DP  RH WIND       PRES   REMARKS
ELKHART        CLEAR     55  52  88 S7        29.69F
GOSHEN         CLEAR     57  51  80 S10       29.69F
LOGANSPORT +   CLEAR     55  52  88 S10       29.71F
PERU/GRISSOM   CLEAR     58  58 100 S12       29.71F
ROCHESTER +    CLEAR     57  54  88 S6        29.70F
SOUTH BEND     CLEAR     56  52  86 S10       29.68F
WARSAW +       CLEAR     55  52  88 S3        29.70F

$$

INZ006>009-017-018-025>027-230300-
NORTHEAST INDIANA

CITY           SKY/WX    TMP DP  RH WIND       PRES   REMARKS
ANGOLA *+      PTCLDY    55  46  71 S7        29.71F
AUBURN +       PTCLDY    55  52  88 CALM      29.73F
FORT WAYNE     PTCLDY    54  50  86 S9        29.74F
HUNTINGTON +   CLEAR     55  54  95 S6        29.73F
KENDALLVILLE + CLOUDY    56  54  92 S8        29.72F

$$

INZ028-029-035-036-043>045-051>053-230300-
WEST CENTRAL INDIANA

CITY           SKY/WX    TMP DP  RH WIND       PRES   REMARKS
LAFAYETTE      CLEAR     61  55  81 S9        29.70S
TERRE HAUTE    PTCLDY    62  53  72 S13       29.75F

$$

INZ030>032-037>040-046>048-054>057-064-065-230300-
CENTRAL INDIANA

CITY           SKY/WX    TMP DP  RH WIND       PRES   REMARKS
CP ATTERBURY + CLOUDY    59  55  88 CALM      29.80S
COLUMBUS       PTCLDY    59  57  94 S9        29.79S
FRANKFORT +    MOCLDY    60  56  85 S12       29.74S
GREENWOOD *+   CLEAR     59  56  90 S7        29.78F
INDIANAPOLIS   CLOUDY    59  54  83 S10       29.75F
-EAGLE CREEK   CLOUDY    61  54  77 S6        29.75F
KOKOMO +       CLEAR     57  53  86 S9        29.74F
MARION +       CLEAR     55  53  91 S9        29.75S
MT COMFORT *+  CLEAR     55  54  94 S7        29.77F
SHELBYVILLE    CLEAR     56  52  86 S8        29.78S
ZIONSVILLE +   CLEAR     58  54  84 S8        29.75F

$$

INZ033-034-041-042-049-050-058-059-230300-
EAST CENTRAL INDIANA

CITY           SKY/WX    TMP DP  RH WIND       PRES   REMARKS
MUNCIE         CLEAR     60  54  80 S10       29.76F

$$

INZ060-061-067>069-081>083-085>088-230300-
SOUTHWEST INDIANA

CITY           SKY/WX    TMP DP  RH WIND       PRES   REMARKS
EVANSVILLE     PTCLDY    62  54  74 CALM      29.80S
HUNTINGBURG *+ CLOUDY    63  55  75 SE3       29.80S
WASHINGTON +   CLOUDY    57  53  85 S7        29.79S

$$

INZ062-063-066-070>080-084-089>092-230300-
SOUTH CENTRAL AND SOUTHEAST INDIANA

CITY           SKY/WX    TMP DP  RH WIND       PRES   REMARKS
BEDFORD +      CLEAR    N/A N/A N/A S3        29.80R
BLOOMINGTON    PTCLDY    61  53  75 S8        29.78F
MADISON *+     CLEAR     59  52  77 S3        29.84S
NORTH VERNON + CLEAR     63  55  77 S8        29.82R
SEYMOUR +      CLEAR     59  54  82 S6        29.80S

$$




USA.gov is the U.S. government's official web portal to all federal, state and local government web resources and services.